Year,Month,Day,Hour,Minute,Value (Times are PST for insolation in W/m^2)
2010,03,02,00,00,0.00
2010,03,02,00,01,0.00
2010,03,02,00,02,0.00
2010,03,02,00,03,0.00
2010,03,02,00,04,0.00
2010,03,02,00,05,0.00
2010,03,02,00,06,0.00
2010,03,02,00,07,0.00
2010,03,02,00,08,0.00
2010,03,02,00,09,0.00
2010,03,02,00,10,0.00
2010,03,02,00,11,0.00
2010,03,02,00,12,0.00
2010,03,02,00,18,0.00
2010,03,02,00,19,0.00
2010,03,02,00,20,0.00
2010,03,02,00,21,0.00
2010,03,02,00,22,0.00
2010,03,02,00,23,0.00
2010,03,02,00,24,0.00
2010,03,02,00,25,0.00
2010,03,02,00,26,0.00
2010,03,02,00,27,0.00
2010,03,02,00,28,0.00
2010,03,02,00,29,0.00
2010,03,02,00,30,0.00
2010,03,02,00,31,0.00
2010,03,02,00,32,0.00
2010,03,02,00,33,0.00
2010,03,02,00,34,0.00
2010,03,02,00,35,0.00
2010,03,02,00,36,0.00
2010,03,02,00,37,0.00
2010,03,02,00,38,0.00
2010,03,02,00,39,0.00
2010,03,02,00,40,0.00
2010,03,02,00,41,0.00
2010,03,02,00,42,0.00
2010,03,02,00,43,0.00
2010,03,02,00,44,0.00
2010,03,02,00,45,0.00
2010,03,02,00,46,0.00
2010,03,02,00,47,0.00
2010,03,02,00,48,0.00
2010,03,02,00,49,0.00
2010,03,02,00,50,0.00
2010,03,02,00,51,0.00
2010,03,02,00,52,0.00
2010,03,02,00,53,0.00
2010,03,02,00,54,0.00
2010,03,02,00,55,0.00
2010,03,02,00,56,0.00
2010,03,02,00,57,0.00
2010,03,02,00,58,0.00
2010,03,02,00,59,0.00
2010,03,02,01,00,0.00
2010,03,02,01,01,0.00
2010,03,02,01,02,0.00
2010,03,02,01,03,0.00
2010,03,02,01,04,0.00
2010,03,02,01,05,0.00
2010,03,02,01,06,0.00
2010,03,02,01,07,0.00
2010,03,02,01,08,0.00
2010,03,02,01,09,0.00
2010,03,02,01,10,0.00
2010,03,02,01,11,0.00
2010,03,02,01,12,0.00
2010,03,02,01,13,0.00
2010,03,02,01,14,0.00
2010,03,02,01,15,0.00
2010,03,02,01,16,0.00
2010,03,02,01,17,0.00
2010,03,02,01,18,0.00
2010,03,02,01,19,0.00
2010,03,02,01,20,0.00
2010,03,02,01,21,0.00
2010,03,02,01,22,0.00
2010,03,02,01,23,0.00
2010,03,02,01,24,0.00
2010,03,02,01,25,0.00
2010,03,02,01,26,0.00
2010,03,02,01,27,0.00
2010,03,02,01,28,0.00
2010,03,02,01,29,0.00
2010,03,02,01,30,0.00
2010,03,02,01,31,0.00
2010,03,02,01,32,0.00
2010,03,02,01,33,0.00
2010,03,02,01,34,0.00
2010,03,02,01,35,0.00
2010,03,02,01,36,0.00
2010,03,02,01,37,0.00
2010,03,02,01,38,0.00
2010,03,02,01,39,0.00
2010,03,02,01,40,0.00
2010,03,02,01,41,0.00
2010,03,02,01,42,0.00
2010,03,02,01,43,0.00
2010,03,02,01,44,0.00
2010,03,02,01,45,0.00
2010,03,02,01,46,0.00
2010,03,02,01,47,0.00
2010,03,02,01,48,0.00
2010,03,02,01,49,0.00
2010,03,02,01,50,0.00
2010,03,02,01,51,0.00
2010,03,02,01,52,0.00
2010,03,02,01,53,0.00
2010,03,02,01,54,0.00
2010,03,02,01,55,0.00
2010,03,02,01,56,0.00
2010,03,02,01,57,0.00
2010,03,02,01,58,0.00
2010,03,02,01,59,0.00
2010,03,02,02,00,0.00
2010,03,02,02,01,0.00
2010,03,02,02,02,0.00
2010,03,02,02,03,0.00
2010,03,02,02,04,0.00
2010,03,02,02,05,0.00
2010,03,02,02,06,0.00
2010,03,02,02,07,0.00
2010,03,02,02,08,0.00
2010,03,02,02,09,0.00
2010,03,02,02,10,0.00
2010,03,02,02,11,0.00
2010,03,02,02,12,0.00
2010,03,02,02,13,0.00
2010,03,02,02,14,0.00
2010,03,02,02,15,0.00
2010,03,02,02,16,0.00
2010,03,02,02,17,0.00
2010,03,02,02,18,0.00
2010,03,02,02,19,0.00
2010,03,02,02,20,0.00
2010,03,02,02,21,0.00
2010,03,02,02,22,0.00
2010,03,02,02,23,0.00
2010,03,02,02,24,0.00
2010,03,02,02,25,0.00
2010,03,02,02,26,0.00
2010,03,02,02,27,0.00
2010,03,02,02,28,0.00
2010,03,02,02,29,0.00
2010,03,02,02,30,0.00
2010,03,02,02,31,0.00
2010,03,02,02,32,0.00
2010,03,02,02,33,0.00
2010,03,02,02,34,0.00
2010,03,02,02,35,0.00
2010,03,02,02,36,0.00
2010,03,02,02,37,0.00
2010,03,02,02,38,0.00
2010,03,02,02,39,0.00
2010,03,02,02,40,0.00
2010,03,02,02,41,0.00
2010,03,02,02,42,0.00
2010,03,02,02,43,0.00
2010,03,02,02,44,0.00
2010,03,02,02,45,0.00
2010,03,02,02,46,0.00
2010,03,02,02,47,0.00
2010,03,02,02,48,0.00
2010,03,02,02,49,0.00
2010,03,02,02,50,0.00
2010,03,02,02,51,0.00
2010,03,02,02,52,0.00
2010,03,02,02,53,0.00
2010,03,02,02,54,0.00
2010,03,02,02,55,0.00
2010,03,02,02,56,0.00
2010,03,02,02,57,0.00
2010,03,02,02,58,0.00
2010,03,02,02,59,0.00
2010,03,02,03,00,0.00
2010,03,02,03,01,0.00
2010,03,02,03,02,0.00
2010,03,02,03,03,0.00
2010,03,02,03,04,0.00
2010,03,02,03,05,0.00
2010,03,02,03,06,0.00
2010,03,02,03,07,0.00
2010,03,02,03,08,0.00
2010,03,02,03,09,0.00
2010,03,02,03,10,0.00
2010,03,02,03,11,0.00
2010,03,02,03,12,0.00
2010,03,02,03,13,0.00
2010,03,02,03,14,0.00
2010,03,02,03,15,0.00
2010,03,02,03,16,0.00
2010,03,02,03,17,0.00
2010,03,02,03,18,0.00
2010,03,02,03,19,0.00
2010,03,02,03,20,0.00
2010,03,02,03,21,0.00
2010,03,02,03,22,0.00
2010,03,02,03,23,0.00
2010,03,02,03,24,0.00
2010,03,02,03,25,0.00
2010,03,02,03,26,0.00
2010,03,02,03,27,0.00
2010,03,02,03,28,0.00
2010,03,02,03,29,0.00
2010,03,02,03,30,0.00
2010,03,02,03,31,0.00
2010,03,02,03,32,0.00
2010,03,02,03,33,0.00
2010,03,02,03,34,0.00
2010,03,02,03,35,0.00
2010,03,02,03,36,0.00
2010,03,02,03,37,0.00
2010,03,02,03,38,0.00
2010,03,02,03,39,0.00
2010,03,02,03,40,0.00
2010,03,02,03,41,0.00
2010,03,02,03,42,0.00
2010,03,02,03,43,0.00
2010,03,02,03,44,0.00
2010,03,02,03,45,0.00
2010,03,02,03,46,0.00
2010,03,02,03,47,0.00
2010,03,02,03,48,0.00
2010,03,02,03,49,0.00
2010,03,02,03,50,0.00
2010,03,02,03,51,0.00
2010,03,02,03,52,0.00
2010,03,02,03,53,0.00
2010,03,02,03,54,0.00
2010,03,02,03,55,0.00
2010,03,02,03,56,0.00
2010,03,02,03,57,0.00
2010,03,02,03,58,0.00
2010,03,02,03,59,0.00
2010,03,02,04,00,0.00
2010,03,02,04,01,0.00
2010,03,02,04,02,0.00
2010,03,02,04,03,0.00
2010,03,02,04,04,0.00
2010,03,02,04,05,0.00
2010,03,02,04,06,0.00
2010,03,02,04,07,0.00
2010,03,02,04,08,0.00
2010,03,02,04,09,0.00
2010,03,02,04,10,0.00
2010,03,02,04,11,0.00
2010,03,02,04,12,0.00
2010,03,02,04,13,0.00
2010,03,02,04,14,0.00
2010,03,02,04,15,0.00
2010,03,02,04,16,0.00
2010,03,02,04,17,0.00
2010,03,02,04,18,0.00
2010,03,02,04,19,0.00
2010,03,02,04,20,0.00
2010,03,02,04,21,0.00
2010,03,02,04,22,0.00
2010,03,02,04,23,0.00
2010,03,02,04,24,0.00
2010,03,02,04,25,0.00
2010,03,02,04,26,0.00
2010,03,02,04,27,0.00
2010,03,02,04,28,0.00
2010,03,02,04,29,0.00
2010,03,02,04,30,0.00
2010,03,02,04,31,0.00
2010,03,02,04,32,0.00
2010,03,02,04,33,0.00
2010,03,02,04,34,0.00
2010,03,02,04,35,0.00
2010,03,02,04,36,0.00
2010,03,02,04,37,0.00
2010,03,02,04,38,0.00
2010,03,02,04,39,0.00
2010,03,02,04,40,0.00
2010,03,02,04,41,0.00
2010,03,02,04,42,0.00
2010,03,02,04,43,0.00
2010,03,02,04,44,0.00
2010,03,02,04,45,0.00
2010,03,02,04,46,0.00
2010,03,02,04,47,0.00
2010,03,02,04,48,0.00
2010,03,02,04,49,0.00
2010,03,02,04,50,0.00
2010,03,02,04,51,0.00
2010,03,02,04,52,0.00
2010,03,02,04,53,0.00
2010,03,02,04,54,0.00
2010,03,02,04,55,0.00
2010,03,02,04,56,0.00
2010,03,02,04,57,0.00
2010,03,02,04,58,0.00
2010,03,02,04,59,0.00
2010,03,02,05,00,0.00
2010,03,02,05,01,0.00
2010,03,02,05,02,0.00
2010,03,02,05,03,0.00
2010,03,02,05,04,0.00
2010,03,02,05,05,0.00
2010,03,02,05,06,0.00
2010,03,02,05,07,0.00
2010,03,02,05,08,0.00
2010,03,02,05,09,0.00
2010,03,02,05,10,0.00
2010,03,02,05,11,0.00
2010,03,02,05,12,0.00
2010,03,02,05,13,0.00
2010,03,02,05,14,0.00
2010,03,02,05,15,0.00
2010,03,02,05,16,0.00
2010,03,02,05,17,0.00
2010,03,02,05,18,0.00
2010,03,02,05,19,0.00
2010,03,02,05,20,0.00
2010,03,02,05,21,0.00
2010,03,02,05,22,0.00
2010,03,02,05,23,0.00
2010,03,02,05,24,0.00
2010,03,02,05,25,0.00
2010,03,02,05,26,0.00
2010,03,02,05,27,0.00
2010,03,02,05,28,0.00
2010,03,02,05,29,0.00
2010,03,02,05,30,0.00
2010,03,02,05,31,0.00
2010,03,02,05,32,0.00
2010,03,02,05,33,0.00
2010,03,02,05,34,0.00
2010,03,02,05,35,0.00
2010,03,02,05,36,0.00
2010,03,02,05,37,0.00
2010,03,02,05,38,0.00
2010,03,02,05,39,0.00
2010,03,02,05,40,0.00
2010,03,02,05,41,0.00
2010,03,02,05,42,0.00
2010,03,02,05,43,0.00
2010,03,02,05,44,0.00
2010,03,02,05,45,0.00
2010,03,02,05,46,0.00
2010,03,02,05,47,0.00
2010,03,02,05,48,0.00
2010,03,02,05,49,0.00
2010,03,02,05,50,0.00
2010,03,02,05,51,0.00
2010,03,02,05,52,0.00
2010,03,02,05,53,0.00
2010,03,02,05,54,0.00
2010,03,02,05,55,0.00
2010,03,02,05,56,0.00
2010,03,02,05,57,0.00
2010,03,02,05,58,0.00
2010,03,02,05,59,0.00
2010,03,02,06,00,0.00
2010,03,02,06,01,0.00
2010,03,02,06,02,0.00
2010,03,02,06,03,0.00
2010,03,02,06,04,0.00
2010,03,02,06,05,0.00
2010,03,02,06,06,0.00
2010,03,02,06,07,0.00
2010,03,02,06,08,0.00
2010,03,02,06,09,0.00
2010,03,02,06,10,0.00
2010,03,02,06,11,0.00
2010,03,02,06,12,0.00
2010,03,02,06,13,0.00
2010,03,02,06,14,0.00
2010,03,02,06,15,0.00
2010,03,02,06,16,0.00
2010,03,02,06,17,0.00
2010,03,02,06,18,0.00
2010,03,02,06,19,0.00
2010,03,02,06,20,0.00
2010,03,02,06,21,0.00
2010,03,02,06,22,0.00
2010,03,02,06,23,0.00
2010,03,02,06,24,0.00
2010,03,02,06,25,0.00
2010,03,02,06,26,0.00
2010,03,02,06,27,0.00
2010,03,02,06,28,0.00
2010,03,02,06,29,0.00
2010,03,02,06,30,0.00
2010,03,02,06,31,0.00
2010,03,02,06,32,0.00
2010,03,02,06,33,0.00
2010,03,02,06,34,0.00
2010,03,02,06,35,0.00
2010,03,02,06,36,0.00
2010,03,02,06,37,0.00
2010,03,02,06,38,0.00
2010,03,02,06,39,0.00
2010,03,02,06,40,0.00
2010,03,02,06,41,0.00
2010,03,02,06,42,0.00
2010,03,02,06,43,0.00
2010,03,02,06,44,0.00
2010,03,02,06,45,0.00
2010,03,02,06,46,0.00
2010,03,02,06,47,0.00
2010,03,02,06,48,0.00
2010,03,02,06,49,0.00
2010,03,02,06,50,0.00
2010,03,02,06,51,0.00
2010,03,02,06,52,0.00
2010,03,02,06,53,0.00
2010,03,02,06,54,0.00
2010,03,02,06,55,0.00
2010,03,02,06,56,0.00
2010,03,02,06,57,0.00
2010,03,02,06,58,0.00
2010,03,02,06,59,0.00
2010,03,02,07,00,0.00
2010,03,02,07,01,0.00
2010,03,02,07,02,0.00
2010,03,02,07,03,0.00
2010,03,02,07,04,0.00
2010,03,02,07,05,5.00
2010,03,02,07,06,5.00
2010,03,02,07,07,5.00
2010,03,02,07,08,5.00
2010,03,02,07,09,7.00
2010,03,02,07,10,7.00
2010,03,02,07,11,7.00
2010,03,02,07,12,7.00
2010,03,02,07,13,9.00
2010,03,02,07,14,9.00
2010,03,02,07,15,11.00
2010,03,02,07,16,11.00
2010,03,02,07,17,11.00
2010,03,02,07,18,12.00
2010,03,02,07,19,12.00
2010,03,02,07,20,12.00
2010,03,02,07,21,14.00
2010,03,02,07,22,14.00
2010,03,02,07,23,16.00
2010,03,02,07,24,16.00
2010,03,02,07,25,18.00
2010,03,02,07,26,19.00
2010,03,02,07,27,19.00
2010,03,02,07,28,19.00
2010,03,02,07,29,21.00
2010,03,02,07,30,19.10
2010,03,02,07,31,19.00
2010,03,02,07,32,19.00
2010,03,02,07,33,19.00
2010,03,02,07,34,18.00
2010,03,02,07,35,18.00
2010,03,02,07,36,18.00
2010,03,02,07,37,16.00
2010,03,02,07,38,16.00
2010,03,02,07,39,16.00
2010,03,02,07,40,16.00
2010,03,02,07,41,16.00
2010,03,02,07,42,16.00
2010,03,02,07,43,18.00
2010,03,02,07,44,18.00
2010,03,02,07,45,19.00
2010,03,02,07,46,19.00
2010,03,02,07,47,21.00
2010,03,02,07,48,21.00
2010,03,02,07,49,21.00
2010,03,02,07,50,23.00
2010,03,02,07,51,24.90
2010,03,02,07,52,26.00
2010,03,02,07,53,27.90
2010,03,02,07,54,30.00
2010,03,02,07,55,30.00
2010,03,02,07,56,32.00
2010,03,02,07,57,32.00
2010,03,02,07,58,30.00
2010,03,02,07,59,30.00
2010,03,02,08,00,30.00
2010,03,02,08,01,30.00
2010,03,02,08,02,30.00
2010,03,02,08,03,30.00
2010,03,02,08,04,30.00
2010,03,02,08,05,30.00
2010,03,02,08,06,30.00
2010,03,02,08,07,30.00
2010,03,02,08,08,28.00
2010,03,02,08,09,28.00
2010,03,02,08,10,26.10
2010,03,02,08,11,26.00
2010,03,02,08,12,26.00
2010,03,02,08,13,26.00
2010,03,02,08,14,26.00
2010,03,02,08,15,27.90
2010,03,02,08,16,30.00
2010,03,02,08,17,30.00
2010,03,02,08,18,32.00
2010,03,02,08,19,34.80
2010,03,02,08,20,37.00
2010,03,02,08,21,42.00
2010,03,02,08,22,42.00
2010,03,02,08,23,51.00
2010,03,02,08,24,56.00
2010,03,02,08,25,62.00
2010,03,02,08,26,67.00
2010,03,02,08,27,70.00
2010,03,02,08,28,72.00
2010,03,02,08,29,74.00
2010,03,02,08,30,74.00
2010,03,02,08,31,74.00
2010,03,02,08,32,74.00
2010,03,02,08,33,74.00
2010,03,02,08,34,74.00
2010,03,02,08,35,72.00
2010,03,02,08,36,72.00
2010,03,02,08,37,72.00
2010,03,02,08,38,72.00
2010,03,02,08,39,72.00
2010,03,02,08,40,72.00
2010,03,02,08,41,74.00
2010,03,02,08,42,74.00
2010,03,02,08,43,72.10
2010,03,02,08,44,72.00
2010,03,02,08,45,70.10
2010,03,02,08,46,70.00
2010,03,02,08,47,70.00
2010,03,02,08,48,70.00
2010,03,02,08,49,73.80
2010,03,02,08,50,76.00
2010,03,02,08,51,76.90
2010,03,02,08,52,81.00
2010,03,02,08,53,83.80
2010,03,02,08,54,91.00
2010,03,02,08,55,96.70
2010,03,02,08,56,100.00
2010,03,02,08,57,100.00
2010,03,02,08,58,100.00
2010,03,02,08,59,102.00
2010,03,02,09,00,105.00
2010,03,02,09,01,107.00
2010,03,02,09,02,110.60
2010,03,02,09,03,114.00
2010,03,02,09,04,119.70
2010,03,02,09,05,123.00
2010,03,02,09,06,124.90
2010,03,02,09,07,127.00
2010,03,02,09,08,125.00
2010,03,02,09,09,125.00
2010,03,02,09,10,125.00
2010,03,02,09,11,127.00
2010,03,02,09,12,127.00
2010,03,02,09,13,127.00
2010,03,02,09,14,127.90
2010,03,02,09,15,127.00
2010,03,02,09,16,125.20
2010,03,02,09,17,125.00
2010,03,02,09,18,125.00
2010,03,02,09,19,125.00
2010,03,02,09,20,127.00
2010,03,02,09,21,128.00
2010,03,02,09,22,130.00
2010,03,02,09,23,130.00
2010,03,02,09,24,134.00
2010,03,02,09,25,134.00
2010,03,02,09,26,135.00
2010,03,02,09,27,137.00
2010,03,02,09,28,139.00
2010,03,02,09,29,141.00
2010,03,02,09,30,142.00
2010,03,02,09,31,142.00
2010,03,02,09,32,142.00
2010,03,02,09,33,141.00
2010,03,02,09,34,141.00
2010,03,02,09,35,141.00
2010,03,02,09,36,137.00
2010,03,02,09,37,135.00
2010,03,02,09,38,134.00
2010,03,02,09,39,134.00
2010,03,02,09,40,132.00
2010,03,02,09,41,132.00
2010,03,02,09,42,130.00
2010,03,02,09,43,132.00
2010,03,02,09,44,132.00
2010,03,02,09,45,132.00
2010,03,02,09,46,134.00
2010,03,02,09,47,135.00
2010,03,02,09,48,137.00
2010,03,02,09,49,139.00
2010,03,02,09,50,139.00
2010,03,02,09,51,139.00
2010,03,02,09,52,139.00
2010,03,02,09,53,137.00
2010,03,02,09,54,135.00
2010,03,02,09,55,132.00
2010,03,02,09,56,132.00
2010,03,02,09,57,132.00
2010,03,02,09,58,125.00
2010,03,02,09,59,125.00
2010,03,02,10,00,125.00
2010,03,02,10,01,125.00
2010,03,02,10,02,127.00
2010,03,02,10,03,128.00
2010,03,02,10,04,128.00
2010,03,02,10,05,137.00
2010,03,02,10,06,142.00
2010,03,02,10,07,148.00
2010,03,02,10,08,155.00
2010,03,02,10,09,156.00
2010,03,02,10,10,162.00
2010,03,02,10,11,167.00
2010,03,02,10,12,178.00
2010,03,02,10,13,186.00
2010,03,02,10,14,186.00
2010,03,02,10,15,186.00
2010,03,02,10,16,186.00
2010,03,02,10,17,171.00
2010,03,02,10,18,171.00
2010,03,02,10,19,171.00
2010,03,02,10,20,169.00
2010,03,02,10,21,165.00
2010,03,02,10,22,158.00
2010,03,02,10,23,153.00
2010,03,02,10,24,146.40
2010,03,02,10,25,142.00
2010,03,02,10,26,142.00
2010,03,02,10,27,139.30
2010,03,02,10,28,139.00
2010,03,02,10,29,139.00
2010,03,02,10,30,139.00
2010,03,02,10,31,137.00
2010,03,02,10,32,135.00
2010,03,02,10,33,134.00
2010,03,02,10,34,134.00
2010,03,02,10,35,130.00
2010,03,02,10,36,128.00
2010,03,02,10,37,128.00
2010,03,02,10,38,130.00
2010,03,02,10,39,135.00
2010,03,02,10,40,142.00
2010,03,02,10,41,151.00
2010,03,02,10,42,156.00
2010,03,02,10,43,160.00
2010,03,02,10,44,158.00
2010,03,02,10,45,156.00
2010,03,02,10,46,156.00
2010,03,02,10,47,155.00
2010,03,02,10,48,153.00
2010,03,02,10,49,151.00
2010,03,02,10,50,149.00
2010,03,02,10,51,148.00
2010,03,02,10,52,148.00
2010,03,02,10,53,148.00
2010,03,02,10,54,155.00
2010,03,02,10,55,155.00
2010,03,02,10,56,165.00
2010,03,02,10,57,169.00
2010,03,02,10,58,169.00
2010,03,02,10,59,160.00
2010,03,02,11,00,153.00
2010,03,02,11,01,142.00
2010,03,02,11,02,130.00
2010,03,02,11,03,121.00
2010,03,02,11,04,121.00
2010,03,02,11,05,121.00
2010,03,02,11,06,121.00
2010,03,02,11,07,100.00
2010,03,02,11,08,98.00
2010,03,02,11,09,98.00
2010,03,02,11,10,102.00
2010,03,02,11,11,111.00
2010,03,02,11,12,123.00
2010,03,02,11,13,135.00
2010,03,02,11,14,151.00
2010,03,02,11,15,167.00
2010,03,02,11,16,178.00
2010,03,02,11,17,185.00
2010,03,02,11,18,191.30
2010,03,02,11,19,197.00
2010,03,02,11,20,200.00
2010,03,02,11,21,204.00
2010,03,02,11,22,206.00
2010,03,02,11,23,209.00
2010,03,02,11,24,218.00
2010,03,02,11,25,248.00
2010,03,02,11,26,232.00
2010,03,02,11,27,248.00
2010,03,02,11,28,258.00
2010,03,02,11,29,267.00
2010,03,02,11,30,285.00
2010,03,02,11,31,274.00
2010,03,02,11,32,265.90
2010,03,02,11,33,264.10
2010,03,02,11,34,262.00
2010,03,02,11,35,260.00
2010,03,02,11,36,257.00
2010,03,02,11,37,255.00
2010,03,02,11,38,253.00
2010,03,02,11,39,241.00
2010,03,02,11,40,229.00
2010,03,02,11,41,213.00
2010,03,02,11,42,200.00
2010,03,02,11,43,193.00
2010,03,02,11,44,199.00
2010,03,02,11,45,209.00
2010,03,02,11,46,209.00
2010,03,02,11,47,206.00
2010,03,02,11,48,193.00
2010,03,02,11,49,193.00
2010,03,02,11,50,196.60
2010,03,02,11,51,193.00
2010,03,02,11,52,188.00
2010,03,02,11,53,190.00
2010,03,02,11,54,197.00
2010,03,02,11,55,209.00
2010,03,02,11,56,209.00
2010,03,02,11,57,236.00
2010,03,02,11,58,225.00
2010,03,02,11,59,221.00
2010,03,02,12,00,218.00
2010,03,02,12,01,214.00
2010,03,02,12,02,216.00
2010,03,02,12,03,227.70
2010,03,02,12,04,247.10
2010,03,02,12,05,255.00
2010,03,02,12,06,292.00
2010,03,02,12,07,292.00
2010,03,02,12,08,292.00
2010,03,02,12,09,262.00
2010,03,02,12,10,244.00
2010,03,02,12,11,232.00
2010,03,02,12,12,229.00
2010,03,02,12,13,258.90
2010,03,02,12,14,262.00
2010,03,02,12,15,329.00
2010,03,02,12,16,332.00
2010,03,02,12,17,332.00
2010,03,02,12,18,332.00
2010,03,02,12,19,339.00
2010,03,02,12,20,339.00
2010,03,02,12,21,339.00
2010,03,02,12,22,260.00
2010,03,02,12,23,260.00
2010,03,02,12,24,237.00
2010,03,02,12,25,220.00
2010,03,02,12,26,206.00
2010,03,02,12,27,200.00
2010,03,02,12,28,264.00
2010,03,02,12,29,264.00
2010,03,02,12,30,258.00
2010,03,02,12,31,265.00
2010,03,02,12,32,294.00
2010,03,02,12,33,260.00
2010,03,02,12,34,243.00
2010,03,02,12,35,225.00
2010,03,02,12,36,202.40
2010,03,02,12,37,200.00
2010,03,02,12,38,156.00
2010,03,02,12,39,146.00
2010,03,02,12,40,148.70
2010,03,02,12,41,167.00
2010,03,02,12,42,186.00
2010,03,02,12,43,189.60
2010,03,02,12,44,176.00
2010,03,02,12,45,158.00
2010,03,02,12,46,148.00
2010,03,02,12,47,144.00
2010,03,02,12,48,144.00
2010,03,02,12,49,141.00
2010,03,02,12,50,142.00
2010,03,02,12,51,146.00
2010,03,02,12,52,149.00
2010,03,02,12,53,146.00
2010,03,02,12,54,141.00
2010,03,02,12,55,137.00
2010,03,02,12,56,130.00
2010,03,02,12,57,120.00
2010,03,02,12,58,114.00
2010,03,02,12,59,118.00
2010,03,02,13,00,125.00
2010,03,02,13,01,125.00
2010,03,02,13,02,118.00
2010,03,02,13,03,109.00
2010,03,02,13,04,109.00
2010,03,02,13,05,118.00
2010,03,02,13,06,137.00
2010,03,02,13,07,155.90
2010,03,02,13,08,176.90
2010,03,02,13,09,197.00
2010,03,02,13,10,223.00
2010,03,02,13,11,250.00
2010,03,02,13,12,278.00
2010,03,02,13,13,288.00
2010,03,02,13,14,292.00
2010,03,02,13,15,290.00
2010,03,02,13,16,285.50
2010,03,02,13,17,278.00
2010,03,02,13,18,278.90
2010,03,02,13,19,272.00
2010,03,02,13,20,278.00
2010,03,02,13,21,289.40
2010,03,02,13,22,317.00
2010,03,02,13,23,308.00
2010,03,02,13,24,408.00
2010,03,02,13,25,408.00
2010,03,02,13,26,561.00
2010,03,02,13,27,462.00
2010,03,02,13,28,462.00
2010,03,02,13,29,190.00
2010,03,02,13,30,207.00
2010,03,02,13,31,207.00
2010,03,02,13,32,207.00
2010,03,02,13,33,367.00
2010,03,02,13,34,367.00
2010,03,02,13,35,239.00
2010,03,02,13,36,239.00
2010,03,02,13,37,359.00
2010,03,02,13,38,357.00
2010,03,02,13,39,304.00
2010,03,02,13,40,304.00
2010,03,02,13,41,422.00
2010,03,02,13,42,422.00
2010,03,02,13,43,422.00
2010,03,02,13,44,422.00
2010,03,02,13,45,334.00
2010,03,02,13,46,322.00
2010,03,02,13,47,406.00
2010,03,02,13,48,322.30
2010,03,02,13,49,323.00
2010,03,02,13,50,330.00
2010,03,02,13,51,317.40
2010,03,02,13,52,304.00
2010,03,02,13,53,288.00
2010,03,02,13,54,295.00
2010,03,02,13,55,278.00
2010,03,02,13,56,271.00
2010,03,02,13,57,264.00
2010,03,02,13,58,255.00
2010,03,02,13,59,246.90
2010,03,02,14,00,239.70
2010,03,02,14,01,234.00
2010,03,02,14,02,239.00
2010,03,02,14,03,255.00
2010,03,02,14,04,290.10
2010,03,02,14,05,299.00
2010,03,02,14,06,308.00
2010,03,02,14,07,306.10
2010,03,02,14,08,294.00
2010,03,02,14,09,278.00
2010,03,02,14,10,267.00
2010,03,02,14,11,258.00
2010,03,02,14,12,244.00
2010,03,02,14,13,229.00
2010,03,02,14,14,214.00
2010,03,02,14,15,199.00
2010,03,02,14,16,185.00
2010,03,02,14,17,172.00
2010,03,02,14,18,169.00
2010,03,02,14,19,160.90
2010,03,02,14,20,142.00
2010,03,02,14,21,123.00
2010,03,02,14,22,111.00
2010,03,02,14,23,102.00
2010,03,02,14,24,100.00
2010,03,02,14,25,98.00
2010,03,02,14,26,98.00
2010,03,02,14,27,98.00
2010,03,02,14,28,91.00
2010,03,02,14,29,77.00
2010,03,02,14,30,77.00
2010,03,02,14,31,62.80
2010,03,02,14,32,56.00
2010,03,02,14,33,47.00
2010,03,02,14,34,47.00
2010,03,02,14,35,39.00
2010,03,02,14,36,42.00
2010,03,02,14,37,46.00
2010,03,02,14,38,47.00
2010,03,02,14,39,49.00
2010,03,02,14,40,49.00
2010,03,02,14,41,53.00
2010,03,02,14,42,58.00
2010,03,02,14,43,63.00
2010,03,02,14,44,65.00
2010,03,02,14,45,62.00
2010,03,02,14,46,56.00
2010,03,02,14,47,53.00
2010,03,02,14,48,51.00
2010,03,02,14,49,51.00
2010,03,02,14,50,53.00
2010,03,02,14,51,53.90
2010,03,02,14,52,58.00
2010,03,02,14,53,60.00
2010,03,02,14,54,62.00
2010,03,02,14,55,63.00
2010,03,02,14,56,65.00
2010,03,02,14,57,67.00
2010,03,02,14,58,72.00
2010,03,02,14,59,83.00
2010,03,02,15,00,100.00
2010,03,02,15,01,121.00
2010,03,02,15,02,121.00
2010,03,02,15,03,166.90
2010,03,02,15,04,190.00
2010,03,02,15,05,197.00
2010,03,02,15,06,197.00
2010,03,02,15,07,202.00
2010,03,02,15,08,207.00
2010,03,02,15,09,285.00
2010,03,02,15,10,236.00
2010,03,02,15,11,236.00
2010,03,02,15,12,236.00
2010,03,02,15,13,236.00
2010,03,02,15,14,181.00
2010,03,02,15,15,158.00
2010,03,02,15,16,146.00
2010,03,02,15,17,137.00
2010,03,02,15,18,134.00
2010,03,02,15,19,148.00
2010,03,02,15,20,153.00
2010,03,02,15,21,153.00
2010,03,02,15,22,151.00
2010,03,02,15,23,158.00
2010,03,02,15,24,165.00
2010,03,02,15,25,174.00
2010,03,02,15,26,183.00
2010,03,02,15,27,183.00
2010,03,02,15,28,174.00
2010,03,02,15,29,167.00
2010,03,02,15,30,165.00
2010,03,02,15,31,181.00
2010,03,02,15,32,181.00
2010,03,02,15,33,181.00
2010,03,02,15,34,403.00
2010,03,02,15,35,311.00
2010,03,02,15,36,341.00
2010,03,02,15,37,281.00
2010,03,02,15,38,283.00
2010,03,02,15,39,283.00
2010,03,02,15,40,283.00
2010,03,02,15,41,316.00
2010,03,02,15,42,301.00
2010,03,02,15,43,230.00
2010,03,02,15,44,204.00
2010,03,02,15,45,193.00
2010,03,02,15,46,206.00
2010,03,02,15,47,192.00
2010,03,02,15,48,192.00
2010,03,02,15,49,246.00
2010,03,02,15,50,183.00
2010,03,02,15,51,179.00
2010,03,02,15,52,192.00
2010,03,02,15,53,200.00
2010,03,02,15,54,200.00
2010,03,02,15,55,200.00
2010,03,02,15,56,183.00
2010,03,02,15,57,167.00
2010,03,02,15,58,167.00
2010,03,02,15,59,171.00
2010,03,02,16,00,181.00
2010,03,02,16,01,181.00
2010,03,02,16,02,227.00
2010,03,02,16,03,227.00
2010,03,02,16,04,176.00
2010,03,02,16,05,160.00
2010,03,02,16,06,165.00
2010,03,02,16,07,179.00
2010,03,02,16,08,221.00
2010,03,02,16,09,178.00
2010,03,02,16,10,162.00
2010,03,02,16,11,148.00
2010,03,02,16,12,142.00
2010,03,02,16,13,137.00
2010,03,02,16,14,137.00
2010,03,02,16,15,137.00
2010,03,02,16,16,146.00
2010,03,02,16,17,163.00
2010,03,02,16,18,163.00
2010,03,02,16,19,125.00
2010,03,02,16,20,120.00
2010,03,02,16,21,113.00
2010,03,02,16,22,105.00
2010,03,02,16,23,100.00
2010,03,02,16,24,97.00
2010,03,02,16,25,97.00
2010,03,02,16,26,95.00
2010,03,02,16,27,95.00
2010,03,02,16,28,97.00
2010,03,02,16,29,97.00
2010,03,02,16,30,97.00
2010,03,02,16,31,93.00
2010,03,02,16,32,91.00
2010,03,02,16,33,88.00
2010,03,02,16,34,84.00
2010,03,02,16,35,81.00
2010,03,02,16,36,81.00
2010,03,02,16,37,81.00
2010,03,02,16,38,83.00
2010,03,02,16,39,86.00
2010,03,02,16,40,91.00
2010,03,02,16,41,98.00
2010,03,02,16,42,102.00
2010,03,02,16,43,104.00
2010,03,02,16,44,97.00
2010,03,02,16,45,95.00
2010,03,02,16,46,95.00
2010,03,02,16,47,97.00
2010,03,02,16,48,97.00
2010,03,02,16,49,93.00
2010,03,02,16,50,90.00
2010,03,02,16,51,84.00
2010,03,02,16,52,84.00
2010,03,02,16,53,70.00
2010,03,02,16,54,63.00
2010,03,02,16,55,56.00
2010,03,02,16,56,51.00
2010,03,02,16,57,46.00
2010,03,02,16,58,42.00
2010,03,02,16,59,40.00
2010,03,02,17,00,39.00
2010,03,02,17,01,39.00
2010,03,02,17,02,40.00
2010,03,02,17,03,42.00
2010,03,02,17,04,46.00
2010,03,02,17,05,49.00
2010,03,02,17,06,54.00
2010,03,02,17,07,60.00
2010,03,02,17,08,62.00
2010,03,02,17,09,69.00
2010,03,02,17,10,67.00
2010,03,02,17,11,67.00
2010,03,02,17,12,67.00
2010,03,02,17,13,63.00
2010,03,02,17,14,63.00
2010,03,02,17,15,62.00
2010,03,02,17,16,58.00
2010,03,02,17,17,53.00
2010,03,02,17,18,53.00
2010,03,02,17,19,47.00
2010,03,02,17,20,46.00
2010,03,02,17,21,44.00
2010,03,02,17,22,42.00
2010,03,02,17,23,42.00
2010,03,02,17,24,42.00
2010,03,02,17,25,46.00